Mobile Downtown, AL

10:03 PM CDT on August 21, 2017 (GMT -0500)
Mobile Downtown

Weather History for KBFM - February, 2012

Change the Weather History Date:

Saturday, February 25, 2012

  Actual Average Record
Temperature  
Mean Temperature 54 °F -  
Max Temperature 59 °F 62 °F 80 °F (2007)
Min Temperature 48 °F 46 °F 37 °F (1999)
Degree Days  
Heating Degree Days 12    
Growing Degree Days 4 (Base 50)    
Moisture  
Dew Point 26 °F    
Average Humidity 35    
Maximum Humidity 47    
Minimum Humidity 21    
Precipitation  
Precipitation 0.00 in - - ()
Sea Level Pressure  
Sea Level Pressure 30.31 in    
Wind  
Wind Speed 13 mph (NNE)    
Max Wind Speed 22 mph    
Max Gust Speed 28 mph    
Visibility 10 miles    
Events      
Averages and records for this station are not official NWS values.
T = Trace of Precipitation, MM = Missing Value Source: NWS Daily Summary

Daily Weather History Graph

Daily Weather History Graph

Search for Another Location

Airport or City:

Trip Planner

Search our weather history database for the weather conditions in past years. The results will help you decide how hot, cold, wet, or windy it might be!

Date:

Astronomy

Feb. 25, 2012 Rise Set
Actual Time 6:23 AM CST 5:47 PM CST
Civil Twilight 5:59 AM CST 6:12 PM CST
Nautical Twilight 5:31 AM CST 6:40 PM CST
Astronomical Twilight 5:03 AM CST 7:07 PM CST
Moon 8:06 AM CST (2/25) 9:26 PM CST (2/25)
Length of Visible Light 12h 12m
Length of Day
11h 24m
Waxing Crescent, 14% of the Moon is Illuminated
Feb 25
Waxing Crescent
Feb 29
First Quarter
Mar 8
Full
Mar 14
Last Quarter
Mar 22
New

Hourly Weather History & Observations

Time (CST) Temp. Dew Point Humidity Pressure Visibility Wind Dir Wind Speed Gust Speed Precip Events Conditions
12:53 AM 53.1 °F 26.1 °F 35% 30.24 in 10.0 mi NNW 21.9 mph 27.6 mph N/A   Partly Cloudy
1:53 AM 53.1 °F 25.0 °F 34% 30.27 in 10.0 mi North 16.1 mph - N/A   Clear
2:53 AM 52.0 °F 26.1 °F 37% 30.26 in 10.0 mi North 15.0 mph 21.9 mph N/A   Clear
3:53 AM 50.0 °F 27.0 °F 41% 30.28 in 10.0 mi North 11.5 mph - N/A   Clear
4:53 AM 48.9 °F 27.0 °F 43% 30.30 in 10.0 mi North 9.2 mph - N/A   Clear
5:53 AM 48.2 °F 26.6 °F 43% 30.31 in 10.0 mi North 9.2 mph - N/A   Clear
6:53 AM 48.0 °F 26.1 °F 42% 30.32 in 10.0 mi North 12.7 mph - N/A   Clear
7:53 AM 48.9 °F 26.1 °F 41% 30.35 in 10.0 mi North 10.4 mph - N/A   Clear
8:53 AM 52.0 °F 26.1 °F 37% 30.37 in 10.0 mi North 10.4 mph 23.0 mph N/A   Clear
9:53 AM 55.9 °F 23.0 °F 28% 30.37 in 10.0 mi North 11.5 mph 20.7 mph N/A   Clear
10:53 AM 57.0 °F 19.9 °F 24% 30.36 in 10.0 mi NNE 17.3 mph 21.9 mph N/A   Clear
11:53 AM 59.0 °F 19.9 °F 22% 30.33 in 10.0 mi North 15.0 mph - N/A   Clear
12:53 PM 59.0 °F 21.9 °F 24% 30.29 in 10.0 mi NNE 13.8 mph - N/A   Clear
1:53 PM 57.9 °F 21.9 °F 25% 30.28 in 10.0 mi NNE 11.5 mph - N/A   Clear
2:53 PM 59.0 °F 19.0 °F 21% 30.28 in 10.0 mi North 11.5 mph - N/A   Clear
3:53 PM 57.9 °F 21.9 °F 25% 30.30 in 10.0 mi North 8.1 mph - N/A   Clear
4:53 PM 57.9 °F 21.9 °F 25% 30.31 in 10.0 mi North 8.1 mph - N/A   Clear
5:53 PM 55.9 °F 24.1 °F 29% 30.31 in 10.0 mi North 4.6 mph - N/A   Clear
6:53 PM 55.9 °F 30.0 °F 37% 30.31 in 10.0 mi NNE 8.1 mph - N/A   Clear
7:53 PM 55.9 °F 30.9 °F 39% 30.32 in 10.0 mi NE 4.6 mph - N/A   Clear
8:53 PM 54.0 °F 33.1 °F 45% 30.31 in 10.0 mi NE 5.8 mph - N/A   Clear
9:53 PM 54.0 °F 32.0 °F 43% 30.32 in 10.0 mi ENE 5.8 mph - N/A   Clear
10:53 PM 54.0 °F 34.0 °F 47% 30.31 in 10.0 mi SE 11.5 mph - N/A   Partly Cloudy
11:53 PM 54.0 °F 34.0 °F 47% 30.31 in 10.0 mi ESE 12.7 mph - N/A   Mostly Cloudy